CST,Max TemperatureF,Mean TemperatureF,Min TemperatureF,Max Dew PointF,MeanDew PointF,Min DewpointF,Max Humidity, Mean Humidity, Min Humidity, Max Sea Level PressureIn, Mean Sea Level PressureIn, Min Sea Level PressureIn, Max VisibilityMiles, Mean VisibilityMiles, Min VisibilityMiles, Max Wind SpeedMPH, Mean Wind SpeedMPH, Max Gust SpeedMPH,PrecipitationIn, CloudCover, Events, WindDirDegrees
2012-12-1,60,48,35,54,49,33,93,86,78,30.06,29.94,29.84,10,7,2,14,7,17,0.00,6,,169
2012-12-2,58,51,43,54,50,43,100,93,86,30.04,29.97,29.88,10,2,0,10,4,13,0.00,5,Fog,175
2012-12-3,71,60,48,58,51,38,100,79,57,30.02,29.86,29.75,10,8,1,28,13,36,0.01,4,,189
2012-12-4,62,47,31,36,28,24,76,51,25,30.34,30.23,30.04,10,10,2,14,6,20,0.00,0,,316
2012-12-5,50,38,25,34,30,23,85,69,52,30.41,30.29,30.10,10,10,10,15,9,18,0.00,0,,107
2012-12-6,51,43,35,43,38,33,92,76,59,30.09,29.99,29.92,10,10,7,15,6,18,0.02,3,Rain,166
2012-12-7,44,42,39,40,39,37,100,91,82,29.95,29.92,29.88,10,5,1,15,7,18,0.04,8,Rain,24
2012-12-8,41,38,35,37,34,31,100,88,76,30.06,29.99,29.92,10,6,2,16,8,21,0.00,7,,45
2012-12-9,43,32,21,40,35,14,100,84,68,29.99,29.88,29.83,10,6,1,21,10,28,0.08,8,Rain,298
2012-12-10,32,25,17,18,14,12,80,69,58,30.07,30.02,29.97,10,10,10,21,10,26,0.00,5,,278
2012-12-11,40,28,15,19,16,11,88,64,40,30.19,30.10,30.04,10,10,10,10,7,16,0.00,1,,224
2012-12-12,50,38,25,21,17,14,74,50,26,30.27,30.21,30.18,10,10,10,20,10,26,0.00,0,,195
2012-12-13,53,41,29,23,20,17,66,47,28,30.22,30.17,30.11,10,10,10,21,9,28,0.00,0,,201
2012-12-14,51,39,27,40,30,23,89,64,38,30.16,30.03,29.84,10,10,7,18,9,23,0.04,4,Rain,173
2012-12-15,52,47,41,46,43,38,100,85,70,29.81,29.62,29.53,10,8,3,21,12,26,0.42,8,Rain,206
2012-12-16,44,40,35,39,34,30,89,84,79,29.81,29.75,29.67,9,8,6,16,6,22,0.00,8,,317
2012-12-17,41,34,26,30,28,25,100,82,64,29.79,29.75,29.71,9,5,2,9,4,16,0.00,4,,269
2012-12-18,54,41,27,34,30,26,100,73,46,29.94,29.74,29.62,10,6,2,25,10,38,0.00,1,,222
2012-12-19,37,32,26,37,32,25,100,91,82,30.00,29.80,29.52,7,4,2,22,10,29,0.47,6,Rain-Thunderstorm,81
2012-12-20,37,28,19,36,26,12,100,86,71,30.10,29.58,29.27,10,3,0,35,22,52,0.59,7,Fog-Rain-Snow-Thunderstorm,328
2012-12-21,31,21,11,13,10,7,88,68,47,30.35,30.29,30.12,10,10,10,21,8,29,0.00,0,,292
2012-12-22,40,25,9,25,16,6,92,70,48,30.32,30.12,29.97,10,10,9,14,6,17,0.00,0,,165
2012-12-23,31,24,17,21,18,13,92,78,63,30.06,30.00,29.96,10,7,5,10,7,14,0.00,0,,21
2012-12-24,21,19,17,19,16,11,100,84,67,30.22,30.04,29.89,10,5,2,17,9,21,0.00,7,,332
2012-12-25,21,17,13,14,11,8,88,78,68,30.39,30.30,30.22,10,10,10,20,13,25,0.00,5,,9
2012-12-26,24,19,14,16,12,8,84,76,68,30.25,30.21,30.15,10,10,10,18,9,24,0.00,8,,349
2012-12-27,29,20,11,21,16,9,96,83,69,30.25,30.14,30.03,10,9,6,15,7,20,0.00,5,,79
2012-12-28,32,29,26,26,24,22,92,85,78,30.04,29.99,29.91,8,6,3,13,4,18,T,8,Snow,43
2012-12-29,27,22,17,23,16,13,88,78,68,30.32,30.17,29.97,10,7,2,17,9,23,T,5,Snow,285
2012-12-30,39,27,15,25,19,13,88,70,52,30.37,30.27,30.13,10,9,6,18,9,25,0.00,0,,209
2012-12-31,37,28,19,29,23,13,92,70,48,30.22,30.14,30.09,10,4,0,16,9,23,0.20,7,Fog-Snow,338